Weather History for KNUQ - June, 2014

Change the Weather History Date:

Thursday, June 12, 2014

  Actual Average Record
Temperature  
Mean Temperature 65 °F 66 °F  
Max Temperature 72 °F 76 °F 93 °F (2008)
Min Temperature 58 °F 56 °F 44 °F (1952)
Degree Days  
Heating Degree Days 0    
Month to date heating degree days 2  
Since 1 June heating degree days 2  
Since 1 July heating degree days 1782  
Cooling Degree Days 0    
Month to date cooling degree days 26  
Year to date cooling degree days 113  
Since 1 June cooling degree days 26  
Growing Degree Days 14 (Base 50)    
Moisture  
Dew Point 49 °F    
Average Humidity 58    
Maximum Humidity 72    
Minimum Humidity 44    
Precipitation  
Precipitation 0.00 in 0.00 in 0.22 in (1954)
Month to date precipitation 0.00 0.07  
Year to date precipitation 5.18 9.60  
Since 1 July precipitation 6.44  
Sea Level Pressure  
Sea Level Pressure 29.97 in    
Wind  
Wind Speed 8 mph (NNW)    
Max Wind Speed 22 mph    
Max Gust Speed 25 mph    
Visibility 10 miles    
Events      
T = Trace of Precipitation, MM = Missing Value Source: NWS Daily Summary

Daily Weather History Graph

Daily Weather History Graph

Search for Another Location

Airport or City:

Trip Planner

Search our weather history database for the weather conditions in past years. The results will help you decide how hot, cold, wet, or windy it might be!

Date:

Astronomy

Jun. 12, 2014 Rise Set
Actual Time 5:46 AM PDT 8:29 PM PDT
Civil Twilight 5:15 AM PDT 9:00 PM PDT
Nautical Twilight 4:37 AM PDT 9:39 PM PDT
Astronomical Twilight 3:53 AM PDT 10:22 PM PDT
Moon 8:08 PM PDT (6/12) 5:30 AM PDT (6/12)
Length of Visible Light 15h 44m
Length of Day
14h 42m
Full, 100% of the Moon is Illuminated
Jun 12
Full
Jun 12
Full
Jun 19
Last Quarter
Jun 27
New
Jul 5
First Quarter

Hourly Weather History & Observations

Time (PDT) Temp. Dew Point Humidity Pressure Visibility Wind Dir Wind Speed Gust Speed Precip Events Conditions
12:56 AM 62.1 °F 54.0 °F 75% 29.93 in 10.0 mi ESE 5.8 mph - N/A   Overcast
1:56 AM 62.1 °F 52.0 °F 70% 29.93 in 10.0 mi Calm Calm - N/A   Overcast
2:56 AM 61.0 °F 52.0 °F 72% 29.92 in 10.0 mi ESE 4.6 mph - N/A   Overcast
3:56 AM 59.0 °F 50.0 °F 72% 29.93 in 10.0 mi Calm Calm - N/A   Mostly Cloudy
4:32 AM 57.2 °F 50.0 °F 77% 29.93 in 10.0 mi SE 3.5 mph - N/A   Scattered Clouds
4:49 AM 59.0 °F 50.0 °F 72% 29.93 in 10.0 mi Calm Calm - N/A   Mostly Cloudy
4:56 AM 59.0 °F 50.0 °F 72% 29.94 in 10.0 mi Variable 3.5 mph - N/A   Mostly Cloudy
5:56 AM 59.0 °F 48.9 °F 69% 29.95 in 10.0 mi WNW 3.5 mph - N/A   Overcast
6:56 AM 59.0 °F 48.0 °F 67% 29.97 in 10.0 mi WNW 4.6 mph - N/A   Overcast
7:56 AM 60.1 °F 48.0 °F 64% 29.98 in 10.0 mi NW 4.6 mph - N/A   Scattered Clouds
8:23 AM 62.6 °F 48.2 °F 59% 29.98 in 10.0 mi North 4.6 mph - N/A   Mostly Cloudy
8:54 AM 62.6 °F 48.2 °F 59% 29.99 in 10.0 mi North 6.9 mph - N/A   Scattered Clouds
8:56 AM 62.1 °F 48.9 °F 62% 30.00 in 10.0 mi North 6.9 mph - N/A   Scattered Clouds
9:56 AM 63.0 °F 51.1 °F 65% 30.00 in 10.0 mi North 10.4 mph - N/A   Clear
10:56 AM 64.0 °F 50.0 °F 60% 30.01 in 10.0 mi North 9.2 mph 19.6 mph N/A   Clear
11:56 AM 66.0 °F 51.1 °F 59% 30.01 in 10.0 mi North 12.7 mph - N/A   Clear
12:56 PM 66.9 °F 52.0 °F 59% 30.01 in 10.0 mi North 11.5 mph - N/A   Clear
1:56 PM 68.0 °F 52.0 °F 56% 30.00 in 10.0 mi North 16.1 mph 21.9 mph N/A   Clear
2:56 PM 69.1 °F 52.0 °F 54% 29.99 in 10.0 mi North 19.6 mph 24.2 mph N/A   Clear
3:56 PM 69.1 °F 52.0 °F 54% 29.99 in 10.0 mi North 15.0 mph - N/A   Clear
4:56 PM 72.0 °F 48.0 °F 43% 29.98 in 10.0 mi NNW 11.5 mph - N/A   Clear
5:56 PM 70.0 °F 46.9 °F 44% 29.98 in 10.0 mi NNW 10.4 mph 19.6 mph N/A   Clear
6:56 PM 68.0 °F 48.0 °F 49% 29.98 in 10.0 mi NNW 12.7 mph - N/A   Clear
7:56 PM 64.0 °F 48.0 °F 56% 29.98 in 10.0 mi NW 9.2 mph 18.4 mph N/A   Clear
8:56 PM 61.0 °F 48.0 °F 62% 29.98 in 10.0 mi NNW 8.1 mph - N/A   Clear
9:56 PM 61.0 °F 48.0 °F 62% 29.99 in 10.0 mi WNW 3.5 mph - N/A   Clear
10:56 PM 60.1 °F 46.9 °F 62% 29.99 in 10.0 mi West 3.5 mph - N/A   Clear
11:56 PM 60.1 °F 43.0 °F 53% 29.99 in 10.0 mi West 3.5 mph - N/A   Clear